Year,Month,Day,Hour,Minute,Value (Times are PST for temperature in C)
2006,04,17,00,00,3.90
2006,04,17,00,01,3.80
2006,04,17,00,02,3.80
2006,04,17,00,03,3.80
2006,04,17,00,04,3.80
2006,04,17,00,05,3.80
2006,04,17,00,06,3.80
2006,04,17,00,07,3.80
2006,04,17,00,08,3.80
2006,04,17,00,09,3.80
2006,04,17,00,10,3.80
2006,04,17,00,11,3.80
2006,04,17,00,12,3.70
2006,04,17,00,13,3.70
2006,04,17,00,14,3.70
2006,04,17,00,15,3.70
2006,04,17,00,16,3.70
2006,04,17,00,17,3.70
2006,04,17,00,18,3.60
2006,04,17,00,19,3.60
2006,04,17,00,20,3.60
2006,04,17,00,21,3.60
2006,04,17,00,22,3.60
2006,04,17,00,23,3.60
2006,04,17,00,24,3.50
2006,04,17,00,25,3.50
2006,04,17,00,26,3.50
2006,04,17,00,27,3.50
2006,04,17,00,28,3.50
2006,04,17,00,29,3.40
2006,04,17,00,30,3.40
2006,04,17,00,31,3.40
2006,04,17,00,32,3.40
2006,04,17,00,33,3.30
2006,04,17,00,34,3.30
2006,04,17,00,35,3.30
2006,04,17,00,36,3.30
2006,04,17,00,37,3.30
2006,04,17,00,38,3.30
2006,04,17,00,39,3.30
2006,04,17,00,40,3.30
2006,04,17,00,41,3.30
2006,04,17,00,42,3.30
2006,04,17,00,43,3.30
2006,04,17,00,44,3.30
2006,04,17,00,45,3.30
2006,04,17,00,46,3.30
2006,04,17,00,47,3.30
2006,04,17,00,48,3.20
2006,04,17,00,49,3.20
2006,04,17,00,50,3.20
2006,04,17,00,51,3.20
2006,04,17,00,52,3.20
2006,04,17,00,53,3.20
2006,04,17,00,54,3.20
2006,04,17,00,55,3.10
2006,04,17,00,56,3.10
2006,04,17,00,57,3.10
2006,04,17,00,58,3.10
2006,04,17,00,59,3.10
2006,04,17,01,00,3.10
2006,04,17,01,01,3.10
2006,04,17,01,02,3.10
2006,04,17,01,03,3.10
2006,04,17,01,04,3.10
2006,04,17,01,05,3.10
2006,04,17,01,06,3.10
2006,04,17,01,07,3.00
2006,04,17,01,08,2.90
2006,04,17,01,09,2.90
2006,04,17,01,10,2.90
2006,04,17,01,11,2.90
2006,04,17,01,12,2.90
2006,04,17,01,13,2.90
2006,04,17,01,14,2.90
2006,04,17,01,15,2.90
2006,04,17,01,16,2.90
2006,04,17,01,17,2.80
2006,04,17,01,18,2.80
2006,04,17,01,19,2.80
2006,04,17,01,20,2.80
2006,04,17,01,21,2.80
2006,04,17,01,22,2.80
2006,04,17,01,23,2.80
2006,04,17,01,24,2.80
2006,04,17,01,25,2.80
2006,04,17,01,26,2.70
2006,04,17,01,27,2.70
2006,04,17,01,28,2.70
2006,04,17,01,29,2.70
2006,04,17,01,30,2.70
2006,04,17,01,31,2.70
2006,04,17,01,32,2.70
2006,04,17,01,33,2.70
2006,04,17,01,34,2.70
2006,04,17,01,35,2.70
2006,04,17,01,36,2.70
2006,04,17,01,37,2.60
2006,04,17,01,38,2.60
2006,04,17,01,39,2.60
2006,04,17,01,40,2.60
2006,04,17,01,41,2.60
2006,04,17,01,42,2.60
2006,04,17,01,43,2.60
2006,04,17,01,44,2.60
2006,04,17,01,45,2.60
2006,04,17,01,46,2.60
2006,04,17,01,47,2.60
2006,04,17,01,48,2.60
2006,04,17,01,49,2.60
2006,04,17,01,50,2.60
2006,04,17,01,51,2.60
2006,04,17,01,52,2.60
2006,04,17,01,53,2.60
2006,04,17,01,54,2.60
2006,04,17,01,55,2.60
2006,04,17,01,56,2.50
2006,04,17,01,57,2.50
2006,04,17,01,58,2.50
2006,04,17,01,59,2.50
2006,04,17,02,00,2.50
2006,04,17,02,01,2.50
2006,04,17,02,02,2.50
2006,04,17,02,03,2.40
2006,04,17,02,04,2.40
2006,04,17,02,05,2.40
2006,04,17,02,06,2.40
2006,04,17,02,07,2.40
2006,04,17,02,08,2.40
2006,04,17,02,09,2.40
2006,04,17,02,10,2.40
2006,04,17,02,11,2.30
2006,04,17,02,12,2.30
2006,04,17,02,13,2.30
2006,04,17,02,14,2.30
2006,04,17,02,15,2.30
2006,04,17,02,16,2.30
2006,04,17,02,17,2.20
2006,04,17,02,18,2.20
2006,04,17,02,19,2.20
2006,04,17,02,20,2.20
2006,04,17,02,21,2.20
2006,04,17,02,22,2.20
2006,04,17,02,23,2.20
2006,04,17,02,24,2.20
2006,04,17,02,25,2.20
2006,04,17,02,26,2.20
2006,04,17,02,27,2.20
2006,04,17,02,28,2.20
2006,04,17,02,29,2.20
2006,04,17,02,30,2.20
2006,04,17,02,31,2.20
2006,04,17,02,32,2.10
2006,04,17,02,33,2.10
2006,04,17,02,34,2.10
2006,04,17,02,35,2.10
2006,04,17,02,36,2.10
2006,04,17,02,37,2.10
2006,04,17,02,38,2.10
2006,04,17,02,39,2.10
2006,04,17,02,40,2.10
2006,04,17,02,41,2.10
2006,04,17,02,42,2.10
2006,04,17,02,43,2.10
2006,04,17,02,44,2.10
2006,04,17,02,45,2.10
2006,04,17,02,46,2.00
2006,04,17,02,47,2.00
2006,04,17,02,48,2.00
2006,04,17,02,49,2.00
2006,04,17,02,50,2.00
2006,04,17,02,51,1.90
2006,04,17,02,52,1.90
2006,04,17,02,53,1.90
2006,04,17,02,54,1.90
2006,04,17,02,55,1.80
2006,04,17,02,56,1.80
2006,04,17,02,57,1.80
2006,04,17,02,58,1.80
2006,04,17,02,59,1.80
2006,04,17,03,00,1.70
2006,04,17,03,01,1.70
2006,04,17,03,02,1.70
2006,04,17,03,03,1.60
2006,04,17,03,04,1.60
2006,04,17,03,05,1.60
2006,04,17,03,06,1.60
2006,04,17,03,07,1.50
2006,04,17,03,08,1.50
2006,04,17,03,09,1.50
2006,04,17,03,10,1.50
2006,04,17,03,11,1.50
2006,04,17,03,12,1.50
2006,04,17,03,13,1.50
2006,04,17,03,14,1.50
2006,04,17,03,15,1.40
2006,04,17,03,16,1.40
2006,04,17,03,17,1.40
2006,04,17,03,18,1.40
2006,04,17,03,19,1.40
2006,04,17,03,20,1.40
2006,04,17,03,21,1.40
2006,04,17,03,22,1.40
2006,04,17,03,23,1.40
2006,04,17,03,24,1.40
2006,04,17,03,25,1.40
2006,04,17,03,26,1.50
2006,04,17,03,27,1.50
2006,04,17,03,28,1.50
2006,04,17,03,29,1.50
2006,04,17,03,30,1.50
2006,04,17,03,31,1.50
2006,04,17,03,32,1.50
2006,04,17,03,33,1.50
2006,04,17,03,34,1.50
2006,04,17,03,35,1.50
2006,04,17,03,36,1.50
2006,04,17,03,37,1.50
2006,04,17,03,38,1.50
2006,04,17,03,39,1.50
2006,04,17,03,40,1.50
2006,04,17,03,41,1.50
2006,04,17,03,42,1.50
2006,04,17,03,43,1.50
2006,04,17,03,44,1.50
2006,04,17,03,45,1.50
2006,04,17,03,46,1.50
2006,04,17,03,47,1.50
2006,04,17,03,48,1.50
2006,04,17,03,49,1.50
2006,04,17,03,50,1.50
2006,04,17,03,51,1.50
2006,04,17,03,52,1.50
2006,04,17,03,53,1.50
2006,04,17,03,54,1.50
2006,04,17,03,55,1.50
2006,04,17,03,56,1.50
2006,04,17,03,57,1.60
2006,04,17,03,58,1.60
2006,04,17,03,59,1.60
2006,04,17,04,00,1.60
2006,04,17,04,01,1.60
2006,04,17,04,02,1.60
2006,04,17,04,03,1.60
2006,04,17,04,04,1.60
2006,04,17,04,05,1.60
2006,04,17,04,06,1.60
2006,04,17,04,07,1.60
2006,04,17,04,08,1.60
2006,04,17,04,09,1.60
2006,04,17,04,10,1.60
2006,04,17,04,11,1.60
2006,04,17,04,12,1.60
2006,04,17,04,13,1.60
2006,04,17,04,14,1.60
2006,04,17,04,15,1.50
2006,04,17,04,16,1.50
2006,04,17,04,17,1.50
2006,04,17,04,18,1.50
2006,04,17,04,19,1.50
2006,04,17,04,20,1.50
2006,04,17,04,21,1.50
2006,04,17,04,22,1.50
2006,04,17,04,23,1.50
2006,04,17,04,24,1.50
2006,04,17,04,25,1.50
2006,04,17,04,26,1.50
2006,04,17,04,27,1.50
2006,04,17,04,28,1.50
2006,04,17,04,29,1.50
2006,04,17,04,30,1.50
2006,04,17,04,31,1.50
2006,04,17,04,32,1.50
2006,04,17,04,33,1.50
2006,04,17,04,34,1.50
2006,04,17,04,35,1.50
2006,04,17,04,36,1.50
2006,04,17,04,37,1.50
2006,04,17,04,38,1.50
2006,04,17,04,39,1.50
2006,04,17,04,40,1.50
2006,04,17,04,41,1.50
2006,04,17,04,42,1.50
2006,04,17,04,43,1.50
2006,04,17,04,44,1.50
2006,04,17,04,45,1.50
2006,04,17,04,46,1.50
2006,04,17,04,47,1.50
2006,04,17,04,48,1.50
2006,04,17,04,49,1.50
2006,04,17,04,50,1.50
2006,04,17,04,51,1.50
2006,04,17,04,52,1.50
2006,04,17,04,53,1.50
2006,04,17,04,54,1.50
2006,04,17,04,55,1.50
2006,04,17,04,56,1.60
2006,04,17,04,57,1.60
2006,04,17,04,58,1.60
2006,04,17,04,59,1.60
2006,04,17,05,00,1.60
2006,04,17,05,01,1.70
2006,04,17,05,02,1.70
2006,04,17,05,03,1.70
2006,04,17,05,04,1.70
2006,04,17,05,05,1.70
2006,04,17,05,06,1.70
2006,04,17,05,07,1.70
2006,04,17,05,08,1.70
2006,04,17,05,09,1.70
2006,04,17,05,10,1.70
2006,04,17,05,11,1.70
2006,04,17,05,12,1.70
2006,04,17,05,13,1.70
2006,04,17,05,14,1.70
2006,04,17,05,15,1.70
2006,04,17,05,16,1.70
2006,04,17,05,17,1.70
2006,04,17,05,18,1.60
2006,04,17,05,19,1.60
2006,04,17,05,20,1.60
2006,04,17,05,21,1.70
2006,04,17,05,22,1.70
2006,04,17,05,23,1.70
2006,04,17,05,24,1.70
2006,04,17,05,25,1.70
2006,04,17,05,26,1.70
2006,04,17,05,27,1.70
2006,04,17,05,28,1.80
2006,04,17,05,29,1.80
2006,04,17,05,30,1.80
2006,04,17,05,31,1.80
2006,04,17,05,32,1.80
2006,04,17,05,33,1.80
2006,04,17,05,34,1.80
2006,04,17,05,35,1.80
2006,04,17,05,36,1.80
2006,04,17,05,37,1.80
2006,04,17,05,38,1.80
2006,04,17,05,39,1.80
2006,04,17,05,40,1.90
2006,04,17,05,41,1.90
2006,04,17,05,42,1.90
2006,04,17,05,43,1.90
2006,04,17,05,44,1.90
2006,04,17,05,45,1.90
2006,04,17,05,46,1.90
2006,04,17,05,47,2.00
2006,04,17,05,48,2.00
2006,04,17,05,49,2.00
2006,04,17,05,50,2.00
2006,04,17,05,51,2.00
2006,04,17,05,52,2.00
2006,04,17,05,53,2.00
2006,04,17,05,54,2.10
2006,04,17,05,55,2.10
2006,04,17,05,56,2.10
2006,04,17,05,57,2.10
2006,04,17,05,58,2.10
2006,04,17,05,59,2.10
2006,04,17,06,00,2.10
2006,04,17,06,01,2.10
2006,04,17,06,02,2.10
2006,04,17,06,03,2.10
2006,04,17,06,04,2.10
2006,04,17,06,05,2.20
2006,04,17,06,06,2.20
2006,04,17,06,07,2.20
2006,04,17,06,08,2.20
2006,04,17,06,09,2.20
2006,04,17,06,10,2.20
2006,04,17,06,11,2.20
2006,04,17,06,12,2.20
2006,04,17,06,13,2.20
2006,04,17,06,14,2.20
2006,04,17,06,15,2.30
2006,04,17,06,16,2.30
2006,04,17,06,17,2.30
2006,04,17,06,18,2.30
2006,04,17,06,19,2.40
2006,04,17,06,20,2.40
2006,04,17,06,21,2.40
2006,04,17,06,22,2.40
2006,04,17,06,23,2.50
2006,04,17,06,24,2.50
2006,04,17,06,25,2.50
2006,04,17,06,26,2.50
2006,04,17,06,27,2.50
2006,04,17,06,28,2.50
2006,04,17,06,29,2.60
2006,04,17,06,30,2.60
2006,04,17,06,31,2.60
2006,04,17,06,32,2.60
2006,04,17,06,33,2.60
2006,04,17,06,34,2.70
2006,04,17,06,35,2.70
2006,04,17,06,36,2.70
2006,04,17,06,37,2.70
2006,04,17,06,38,2.70
2006,04,17,06,39,2.70
2006,04,17,06,40,2.70
2006,04,17,06,41,2.80
2006,04,17,06,42,2.80
2006,04,17,06,43,2.80
2006,04,17,06,44,2.80
2006,04,17,06,45,2.80
2006,04,17,06,46,2.80
2006,04,17,06,47,2.90
2006,04,17,06,48,2.90
2006,04,17,06,49,2.90
2006,04,17,06,50,2.90
2006,04,17,06,51,2.90
2006,04,17,06,52,2.90
2006,04,17,06,53,2.90
2006,04,17,06,54,2.90
2006,04,17,06,55,2.90
2006,04,17,06,56,2.90
2006,04,17,06,57,2.90
2006,04,17,06,58,2.90
2006,04,17,06,59,2.90
2006,04,17,07,00,3.10
2006,04,17,07,01,3.10
2006,04,17,07,02,3.10
2006,04,17,07,03,3.10
2006,04,17,07,04,3.10
2006,04,17,07,05,3.10
2006,04,17,07,06,3.10
2006,04,17,07,07,3.10
2006,04,17,07,08,3.20
2006,04,17,07,09,3.20
2006,04,17,07,10,3.20
2006,04,17,07,11,3.20
2006,04,17,07,12,3.20
2006,04,17,07,13,3.30
2006,04,17,07,14,3.30
2006,04,17,07,15,3.30
2006,04,17,07,16,3.30
2006,04,17,07,17,3.30
2006,04,17,07,18,3.30
2006,04,17,07,19,3.40
2006,04,17,07,20,3.40
2006,04,17,07,21,3.50
2006,04,17,07,22,3.50
2006,04,17,07,23,3.60
2006,04,17,07,24,3.70
2006,04,17,07,25,3.70
2006,04,17,07,26,3.80
2006,04,17,07,27,3.80
2006,04,17,07,28,3.80
2006,04,17,07,29,3.80
2006,04,17,07,30,3.90
2006,04,17,07,31,4.00
2006,04,17,07,32,4.00
2006,04,17,07,33,4.00
2006,04,17,07,34,4.10
2006,04,17,07,35,4.10
2006,04,17,07,36,4.20
2006,04,17,07,37,4.20
2006,04,17,07,38,4.20
2006,04,17,07,39,4.30
2006,04,17,07,40,4.30
2006,04,17,07,41,4.40
2006,04,17,07,42,4.40
2006,04,17,07,43,4.50
2006,04,17,07,44,4.50
2006,04,17,07,45,4.60
2006,04,17,07,46,4.70
2006,04,17,07,47,4.80
2006,04,17,07,48,5.00
2006,04,17,07,49,5.10
2006,04,17,07,50,5.30
2006,04,17,07,51,5.50
2006,04,17,07,52,5.70
2006,04,17,07,53,5.90
2006,04,17,07,54,6.10
2006,04,17,07,55,6.20
2006,04,17,07,56,6.40
2006,04,17,07,57,6.60
2006,04,17,07,58,6.70
2006,04,17,07,59,6.80
2006,04,17,08,00,6.90
2006,04,17,08,01,7.00
2006,04,17,08,02,7.10
2006,04,17,08,03,7.20
2006,04,17,08,04,7.20
2006,04,17,08,05,7.30
2006,04,17,08,06,7.30
2006,04,17,08,07,7.30
2006,04,17,08,08,7.30
2006,04,17,08,09,7.30
2006,04,17,08,10,7.30
2006,04,17,08,11,7.40
2006,04,17,08,12,7.50
2006,04,17,08,13,7.50
2006,04,17,08,14,7.60
2006,04,17,08,15,7.60
2006,04,17,08,16,7.60
2006,04,17,08,17,7.60
2006,04,17,08,18,7.60
2006,04,17,08,19,7.60
2006,04,17,08,20,7.70
2006,04,17,08,21,7.80
2006,04,17,08,22,7.80
2006,04,17,08,23,7.80
2006,04,17,08,24,7.80
2006,04,17,08,25,7.80
2006,04,17,08,26,7.90
2006,04,17,08,27,8.00
2006,04,17,08,28,8.00
2006,04,17,08,29,8.00
2006,04,17,08,30,8.00
2006,04,17,08,31,7.90
2006,04,17,08,32,7.90
2006,04,17,08,33,7.80
2006,04,17,08,34,7.80
2006,04,17,08,35,7.80
2006,04,17,08,36,7.80
2006,04,17,08,37,7.80
2006,04,17,08,38,7.90
2006,04,17,08,39,8.00
2006,04,17,08,40,8.00
2006,04,17,08,41,8.10
2006,04,17,08,42,8.10
2006,04,17,08,43,8.10
2006,04,17,08,44,8.00
2006,04,17,08,45,8.00
2006,04,17,08,46,7.90
2006,04,17,08,47,7.90
2006,04,17,08,48,8.00
2006,04,17,08,49,8.00
2006,04,17,08,50,8.00
2006,04,17,08,51,8.10
2006,04,17,08,52,8.20
2006,04,17,08,53,8.20
2006,04,17,08,54,8.30
2006,04,17,08,55,8.30
2006,04,17,08,56,8.30
2006,04,17,08,57,8.30
2006,04,17,08,58,8.40
2006,04,17,08,59,8.40
2006,04,17,09,00,8.40
2006,04,17,09,01,8.40
2006,04,17,09,02,8.50
2006,04,17,09,03,8.60
2006,04,17,09,04,8.70
2006,04,17,09,05,8.60
2006,04,17,09,06,8.50
2006,04,17,09,07,8.40
2006,04,17,09,08,8.40
2006,04,17,09,09,8.40
2006,04,17,09,10,8.50
2006,04,17,09,11,8.60
2006,04,17,09,12,8.60
2006,04,17,09,13,8.60
2006,04,17,09,14,8.60
2006,04,17,09,15,8.70
2006,04,17,09,16,8.70
2006,04,17,09,17,8.70
2006,04,17,09,18,8.80
2006,04,17,09,19,8.80
2006,04,17,09,20,8.70
2006,04,17,09,21,8.70
2006,04,17,09,22,8.70
2006,04,17,09,23,8.60
2006,04,17,09,24,8.50
2006,04,17,09,25,8.40
2006,04,17,09,26,8.30
2006,04,17,09,27,8.30
2006,04,17,09,28,8.30
2006,04,17,09,29,8.30
2006,04,17,09,30,8.30
2006,04,17,09,31,8.20
2006,04,17,09,32,8.20
2006,04,17,09,33,8.20
2006,04,17,09,34,8.20
2006,04,17,09,35,8.20
2006,04,17,09,36,8.20
2006,04,17,09,37,8.20
2006,04,17,09,38,8.30
2006,04,17,09,39,8.40
2006,04,17,09,40,8.40
2006,04,17,09,41,8.50
2006,04,17,09,42,8.50
2006,04,17,09,43,8.60
2006,04,17,09,44,8.70
2006,04,17,09,45,8.70
2006,04,17,09,46,8.70
2006,04,17,09,47,8.80
2006,04,17,09,48,8.80
2006,04,17,09,49,8.90
2006,04,17,09,50,8.90
2006,04,17,09,51,9.00
2006,04,17,09,52,9.00
2006,04,17,09,53,9.10
2006,04,17,09,54,9.10
2006,04,17,09,55,9.20
2006,04,17,09,56,9.20
2006,04,17,09,57,9.20
2006,04,17,09,58,9.10
2006,04,17,09,59,9.10
2006,04,17,10,00,9.10
2006,04,17,10,01,9.10
2006,04,17,10,02,9.00
2006,04,17,10,03,9.00
2006,04,17,10,04,9.00
2006,04,17,10,05,9.00
2006,04,17,10,06,9.00
2006,04,17,10,07,9.00
2006,04,17,10,08,9.00
2006,04,17,10,09,9.00
2006,04,17,10,10,9.00
2006,04,17,10,11,9.00
2006,04,17,10,12,9.10
2006,04,17,10,13,9.10
2006,04,17,10,14,9.10
2006,04,17,10,15,9.10
2006,04,17,10,16,9.20
2006,04,17,10,17,9.20
2006,04,17,10,18,9.20
2006,04,17,10,19,9.20
2006,04,17,10,20,9.20
2006,04,17,10,21,9.20
2006,04,17,10,22,9.20
2006,04,17,10,23,9.10
2006,04,17,10,24,9.10
2006,04,17,10,25,9.10
2006,04,17,10,26,9.10
2006,04,17,10,27,9.20
2006,04,17,10,28,9.20
2006,04,17,10,29,9.20
2006,04,17,10,30,9.20
2006,04,17,10,31,9.20
2006,04,17,10,32,9.20
2006,04,17,10,33,9.20
2006,04,17,10,34,9.20
2006,04,17,10,35,9.20
2006,04,17,10,36,9.20
2006,04,17,10,37,9.20
2006,04,17,10,38,9.30
2006,04,17,10,39,9.30
2006,04,17,10,40,9.30
2006,04,17,10,41,9.30
2006,04,17,10,42,9.40
2006,04,17,10,43,9.50
2006,04,17,10,44,9.50
2006,04,17,10,45,9.60
2006,04,17,10,46,9.60
2006,04,17,10,47,9.50
2006,04,17,10,48,9.40
2006,04,17,10,49,9.30
2006,04,17,10,50,9.30
2006,04,17,10,51,9.20
2006,04,17,10,52,9.30
2006,04,17,10,53,9.20
2006,04,17,10,54,9.20
2006,04,17,10,55,9.20
2006,04,17,10,56,9.20
2006,04,17,10,57,9.10
2006,04,17,10,58,9.00
2006,04,17,10,59,9.00
2006,04,17,11,00,9.00
2006,04,17,11,01,9.00
2006,04,17,11,02,9.00
2006,04,17,11,03,9.10
2006,04,17,11,04,9.10
2006,04,17,11,05,9.20
2006,04,17,11,06,9.30
2006,04,17,11,07,9.40
2006,04,17,11,08,9.50
2006,04,17,11,09,9.60
2006,04,17,11,10,9.60
2006,04,17,11,11,9.70
2006,04,17,11,12,9.70
2006,04,17,11,13,9.80
2006,04,17,11,14,9.90
2006,04,17,11,15,10.00
2006,04,17,11,16,10.00
2006,04,17,11,17,9.90
2006,04,17,11,18,9.90
2006,04,17,11,19,9.90
2006,04,17,11,20,10.10
2006,04,17,11,21,10.00
2006,04,17,11,22,9.90
2006,04,17,11,23,10.00
2006,04,17,11,24,10.10
2006,04,17,11,25,10.20
2006,04,17,11,26,10.30
2006,04,17,11,27,10.30
2006,04,17,11,28,10.40
2006,04,17,11,29,10.40
2006,04,17,11,30,10.60
2006,04,17,11,31,10.50
2006,04,17,11,32,10.40
2006,04,17,11,33,10.40
2006,04,17,11,34,10.50
2006,04,17,11,35,10.60
2006,04,17,11,36,10.80
2006,04,17,11,37,10.90
2006,04,17,11,38,11.00
2006,04,17,11,39,11.10
2006,04,17,11,40,11.10
2006,04,17,11,41,11.20
2006,04,17,11,42,11.20
2006,04,17,11,43,11.20
2006,04,17,11,44,11.30
2006,04,17,11,45,11.30
2006,04,17,11,46,11.10
2006,04,17,11,47,11.10
2006,04,17,11,48,10.90
2006,04,17,11,49,10.90
2006,04,17,11,50,10.80
2006,04,17,11,51,10.70
2006,04,17,11,52,10.50
2006,04,17,11,53,10.30
2006,04,17,11,54,10.20
2006,04,17,11,55,10.10
2006,04,17,11,56,10.00
2006,04,17,11,57,9.90
2006,04,17,11,58,9.90
2006,04,17,11,59,9.90
2006,04,17,12,00,9.90
2006,04,17,12,01,10.00
2006,04,17,12,02,10.10
2006,04,17,12,03,10.20
2006,04,17,12,04,10.40
2006,04,17,12,05,10.60
2006,04,17,12,06,10.60
2006,04,17,12,07,10.70
2006,04,17,12,08,10.70
2006,04,17,12,09,10.70
2006,04,17,12,10,10.70
2006,04,17,12,11,10.60
2006,04,17,12,12,10.60
2006,04,17,12,13,10.80
2006,04,17,12,14,10.90
2006,04,17,12,15,10.90
2006,04,17,12,16,10.70
2006,04,17,12,17,10.70
2006,04,17,12,18,10.70
2006,04,17,12,19,10.70
2006,04,17,12,20,10.80
2006,04,17,12,21,10.90
2006,04,17,12,22,10.90
2006,04,17,12,23,10.80
2006,04,17,12,24,10.70
2006,04,17,12,25,10.70
2006,04,17,12,26,10.70
2006,04,17,12,27,10.70
2006,04,17,12,28,10.70
2006,04,17,12,29,10.70
2006,04,17,12,30,10.70
2006,04,17,12,31,10.80
2006,04,17,12,32,10.90
2006,04,17,12,33,10.90
2006,04,17,12,34,11.00
2006,04,17,12,35,11.20
2006,04,17,12,36,11.30
2006,04,17,12,37,11.40
2006,04,17,12,38,11.50
2006,04,17,12,39,11.60
2006,04,17,12,40,11.60
2006,04,17,12,41,11.50
2006,04,17,12,42,11.30
2006,04,17,12,43,11.20
2006,04,17,12,44,11.10
2006,04,17,12,45,11.10
2006,04,17,12,46,11.10
2006,04,17,12,47,11.20
2006,04,17,12,48,11.30
2006,04,17,12,49,11.50
2006,04,17,12,50,11.60
2006,04,17,12,51,11.70
2006,04,17,12,52,11.90
2006,04,17,12,53,12.00
2006,04,17,12,54,12.30
2006,04,17,12,55,12.50
2006,04,17,12,56,12.60
2006,04,17,12,57,12.80
2006,04,17,12,58,12.90
2006,04,17,12,59,12.70
2006,04,17,13,00,12.50
2006,04,17,13,01,12.20
2006,04,17,13,02,12.00
2006,04,17,13,03,11.80
2006,04,17,13,04,11.70
2006,04,17,13,05,11.70
2006,04,17,13,06,11.80
2006,04,17,13,07,11.80
2006,04,17,13,08,11.70
2006,04,17,13,09,11.60
2006,04,17,13,10,11.50
2006,04,17,13,11,11.40
2006,04,17,13,12,11.30
2006,04,17,13,13,11.40
2006,04,17,13,14,11.50
2006,04,17,13,15,11.70
2006,04,17,13,16,11.80
2006,04,17,13,17,11.80
2006,04,17,13,18,12.10
2006,04,17,13,19,12.30
2006,04,17,13,20,12.30
2006,04,17,13,21,12.30
2006,04,17,13,22,12.30
2006,04,17,13,23,12.30
2006,04,17,13,24,12.30
2006,04,17,13,25,12.20
2006,04,17,13,26,12.10
2006,04,17,13,27,12.00
2006,04,17,13,28,12.00
2006,04,17,13,29,12.00
2006,04,17,13,30,12.00
2006,04,17,13,31,12.00
2006,04,17,13,32,12.10
2006,04,17,13,33,12.10
2006,04,17,13,34,12.10
2006,04,17,13,35,12.00
2006,04,17,13,36,12.00
2006,04,17,13,37,11.90
2006,04,17,13,38,11.80
2006,04,17,13,39,11.80
2006,04,17,13,40,11.80
2006,04,17,13,41,11.70
2006,04,17,13,42,11.70
2006,04,17,13,43,11.60
2006,04,17,13,44,11.60
2006,04,17,13,45,11.60
2006,04,17,13,46,11.60
2006,04,17,13,47,11.50
2006,04,17,13,48,11.40
2006,04,17,13,49,11.30
2006,04,17,13,50,11.30
2006,04,17,13,51,11.20
2006,04,17,13,52,11.20
2006,04,17,13,53,11.20
2006,04,17,13,54,11.20
2006,04,17,13,55,11.30
2006,04,17,13,56,11.30
2006,04,17,13,57,11.30
2006,04,17,13,58,11.30
2006,04,17,13,59,11.30
2006,04,17,14,00,11.40
2006,04,17,14,01,11.40
2006,04,17,14,02,11.40
2006,04,17,14,03,11.40
2006,04,17,14,04,11.50
2006,04,17,14,05,11.60
2006,04,17,14,06,11.60
2006,04,17,14,07,11.60
2006,04,17,14,08,11.60
2006,04,17,14,09,11.60
2006,04,17,14,10,11.60
2006,04,17,14,11,11.60
2006,04,17,14,12,11.70
2006,04,17,14,13,11.90
2006,04,17,14,14,12.00
2006,04,17,14,15,12.10
2006,04,17,14,16,12.30
2006,04,17,14,17,12.40
2006,04,17,14,18,12.50
2006,04,17,14,19,12.60
2006,04,17,14,20,12.70
2006,04,17,14,21,12.60
2006,04,17,14,22,12.50
2006,04,17,14,23,12.50
2006,04,17,14,24,12.50
2006,04,17,14,25,12.40
2006,04,17,14,26,12.40
2006,04,17,14,27,12.40
2006,04,17,14,28,12.30
2006,04,17,14,29,12.30
2006,04,17,14,30,12.40
2006,04,17,14,31,12.50
2006,04,17,14,32,12.60
2006,04,17,14,33,12.70
2006,04,17,14,34,12.70
2006,04,17,14,35,12.80
2006,04,17,14,36,12.80
2006,04,17,14,37,13.00
2006,04,17,14,38,13.10
2006,04,17,14,39,13.10
2006,04,17,14,40,13.20
2006,04,17,14,41,13.20
2006,04,17,14,42,13.20
2006,04,17,14,43,13.20
2006,04,17,14,44,13.20
2006,04,17,14,45,13.20
2006,04,17,14,46,13.20
2006,04,17,14,47,13.30
2006,04,17,14,48,13.30
2006,04,17,14,49,13.40
2006,04,17,14,50,13.20
2006,04,17,14,51,13.00
2006,04,17,14,52,13.10
2006,04,17,14,53,13.10
2006,04,17,14,54,13.00
2006,04,17,14,55,12.90
2006,04,17,14,56,12.80
2006,04,17,14,57,12.80
2006,04,17,14,58,12.80
2006,04,17,14,59,12.80
2006,04,17,15,00,12.90
2006,04,17,15,01,12.90
2006,04,17,15,02,12.80
2006,04,17,15,03,12.80
2006,04,17,15,04,12.80
2006,04,17,15,05,12.70
2006,04,17,15,06,12.70
2006,04,17,15,07,12.60
2006,04,17,15,08,12.60
2006,04,17,15,09,12.50
2006,04,17,15,10,12.40
2006,04,17,15,11,12.40
2006,04,17,15,12,12.40
2006,04,17,15,13,12.20
2006,04,17,15,14,12.00
2006,04,17,15,15,11.90
2006,04,17,15,16,12.00
2006,04,17,15,17,12.00
2006,04,17,15,18,12.00
2006,04,17,15,19,12.00
2006,04,17,15,20,11.80
2006,04,17,15,21,11.80
2006,04,17,15,22,11.80
2006,04,17,15,23,11.80
2006,04,17,15,24,11.90
2006,04,17,15,25,12.00
2006,04,17,15,26,12.10
2006,04,17,15,27,12.20
2006,04,17,15,28,12.30
2006,04,17,15,29,12.30
2006,04,17,15,30,12.40
2006,04,17,15,31,12.40
2006,04,17,15,32,12.40
2006,04,17,15,33,12.50
2006,04,17,15,34,12.60
2006,04,17,15,35,12.60
2006,04,17,15,36,12.70
2006,04,17,15,37,12.80
2006,04,17,15,38,12.80
2006,04,17,15,39,12.70
2006,04,17,15,40,12.60
2006,04,17,15,41,12.50
2006,04,17,15,42,12.50
2006,04,17,15,43,12.40
2006,04,17,15,44,12.40
2006,04,17,15,45,12.40
2006,04,17,15,46,12.40
2006,04,17,15,47,12.40
2006,04,17,15,48,12.40
2006,04,17,15,49,12.30
2006,04,17,15,50,12.30
2006,04,17,15,51,12.30
2006,04,17,15,52,12.20
2006,04,17,15,53,12.20
2006,04,17,15,54,12.20
2006,04,17,15,55,12.10
2006,04,17,15,56,12.10
2006,04,17,15,57,12.10
2006,04,17,15,58,12.10
2006,04,17,15,59,12.10
2006,04,17,16,00,12.30
2006,04,17,16,01,12.30
2006,04,17,16,02,12.30
2006,04,17,16,03,12.20
2006,04,17,16,04,12.10
2006,04,17,16,05,12.00
2006,04,17,16,06,11.80
2006,04,17,16,07,11.70
2006,04,17,16,08,11.70
2006,04,17,16,09,11.70
2006,04,17,16,10,11.70
2006,04,17,16,11,11.80
2006,04,17,16,12,11.90
2006,04,17,16,13,11.90
2006,04,17,16,14,11.80
2006,04,17,16,15,11.70
2006,04,17,16,16,11.60
2006,04,17,16,17,11.60
2006,04,17,16,18,11.50
2006,04,17,16,19,11.50
2006,04,17,16,20,11.40
2006,04,17,16,21,11.30
2006,04,17,16,22,11.20
2006,04,17,16,23,11.10
2006,04,17,16,24,11.10
2006,04,17,16,25,11.10
2006,04,17,16,26,11.10
2006,04,17,16,27,11.10
2006,04,17,16,28,11.00
2006,04,17,16,29,10.90
2006,04,17,16,30,10.90
2006,04,17,16,31,10.90
2006,04,17,16,32,11.10
2006,04,17,16,33,11.10
2006,04,17,16,34,11.10
2006,04,17,16,35,11.10
2006,04,17,16,36,11.00
2006,04,17,16,37,10.90
2006,04,17,16,38,10.80
2006,04,17,16,39,10.90
2006,04,17,16,40,10.90
2006,04,17,16,41,10.90
2006,04,17,16,42,10.90
2006,04,17,16,43,10.90
2006,04,17,16,44,10.90
2006,04,17,16,45,10.90
2006,04,17,16,46,10.90
2006,04,17,16,47,10.90
2006,04,17,16,48,10.90
2006,04,17,16,49,11.00
2006,04,17,16,50,11.10
2006,04,17,16,51,11.20
2006,04,17,16,52,11.30
2006,04,17,16,53,11.30
2006,04,17,16,54,11.40
2006,04,17,16,55,11.40
2006,04,17,16,56,11.50
2006,04,17,16,57,11.60
2006,04,17,16,58,11.60
2006,04,17,16,59,11.60
2006,04,17,17,00,11.40
2006,04,17,17,01,11.20
2006,04,17,17,02,11.00
2006,04,17,17,03,10.90
2006,04,17,17,04,10.90
2006,04,17,17,05,11.00
2006,04,17,17,06,11.10
2006,04,17,17,07,11.10
2006,04,17,17,08,11.10
2006,04,17,17,09,11.00
2006,04,17,17,10,10.90
2006,04,17,17,11,10.90
2006,04,17,17,12,10.90
2006,04,17,17,13,11.00
2006,04,17,17,14,11.10
2006,04,17,17,15,11.10
2006,04,17,17,16,11.20
2006,04,17,17,17,11.30
2006,04,17,17,18,11.40
2006,04,17,17,19,11.40
2006,04,17,17,20,11.50
2006,04,17,17,21,11.60
2006,04,17,17,22,11.60
2006,04,17,17,23,11.60
2006,04,17,17,24,11.60
2006,04,17,17,25,11.60
2006,04,17,17,26,11.70
2006,04,17,17,27,11.70
2006,04,17,17,28,11.80
2006,04,17,17,29,11.80
2006,04,17,17,30,11.90
2006,04,17,17,31,11.90
2006,04,17,17,32,11.90
2006,04,17,17,33,11.90
2006,04,17,17,34,11.90
2006,04,17,17,35,11.90
2006,04,17,17,36,12.00
2006,04,17,17,37,12.00
2006,04,17,17,38,12.00
2006,04,17,17,39,12.00
2006,04,17,17,40,12.00
2006,04,17,17,41,12.10
2006,04,17,17,42,12.10
2006,04,17,17,43,12.00
2006,04,17,17,44,11.90
2006,04,17,17,45,11.90
2006,04,17,17,46,11.90
2006,04,17,17,47,11.90
2006,04,17,17,48,11.80
2006,04,17,17,49,11.80